Theta_e
323 316 315 311 299 295 290 292 296 297 297 299 303 303 303 306 307 301 326 339 339 341 344 346 348 350 349 348 347 345 344 341 341 341 341 342 342 344 344 346 345 344 339 339 338 338 338 337 339
316 316 312 304 294 289 289 293 295 299 301 303 303 302 303 305 317 320 330 339 340 342 345 347 346 350 349 348 346 345 344 341 340 340 340 340 342 342 342 344 344 343 338 338 337 337 337 336 337
315 314 304 299 292 289 290 293 299 301 302 300 301 304 305 309 317 326 333 339 339 340 345 346 346 349 349 348 346 345 343 340 340 339 339 339 341 340 344 343 343 343 340 337 336 335 336 335 340
310 306 302 294 291 294 294 297 301 299 300 302 302 302 310 315 321 331 336 339 337 339 343 344 347 349 349 347 346 344 341 339 338 338 338 339 339 342 343 343 342 340 338 336 335 334 334 333 337
308 302 295 292 292 293 297 300 302 299 299 299 300 301 307 320 332 334 334 338 336 339 341 345 346 347 347 347 345 344 342 339 337 337 337 337 339 341 342 340 339 338 336 334 332 332 331 332 335
300 299 292 289 291 294 296 300 301 299 299 300 299 301 307 320 328 331 334 334 340 339 342 344 340 342 344 345 344 342 341 339 337 336 336 337 337 339 338 337 336 335 333 332 330 330 330 331 331
298 295 291 290 293 294 297 300 298 298 300 300 303 298 308 315 325 332 332 334 340 341 342 342 343 341 338 340 340 340 339 337 337 336 337 337 337 337 336 334 333 333 332 329 329 329 329 330 330
300 297 293 292 291 292 297 298 299 298 297 302 303 299 304 312 324 331 331 334 337 340 341 341 341 341 340 339 334 335 336 335 335 333 331 330 331 332 331 329 330 331 329 328 328 328 329 328 327
301 292 289 291 292 293 298 297 299 300 301 300 303 306 309 316 325 326 326 329 335 336 339 340 340 340 339 338 333 331 331 330 329 327 325 322 323 322 324 326 328 328 327 326 326 325 326 324 322
296 291 292 294 293 293 297 297 297 296 297 297 301 305 313 319 320 321 321 325 327 330 336 339 339 338 338 339 335 333 331 327 324 321 319 319 318 320 321 321 324 325 325 326 325 323 319 315 312
295 292 294 295 297 298 297 295 299 297 294 298 300 303 313 315 317 319 320 325 326 329 332 337 338 338 338 337 336 335 332 325 325 321 321 320 318 318 316 315 313 314 315 314 313 311 310 308 309
292 296 295 299 299 297 295 298 296 297 298 301 300 304 311 312 316 317 320 321 325 327 330 333 336 336 338 338 337 336 332 328 323 322 324 319 316 315 314 313 311 310 310 309 307 307 306 305 305
293 294 296 297 297 295 298 295 295 296 299 300 301 304 309 313 315 316 319 321 325 327 328 332 335 335 337 337 337 336 334 329 323 321 324 321 318 315 315 312 311 309 310 307 306 305 303 302 303
296 296 296 296 297 296 294 293 294 296 298 298 300 301 303 309 313 313 315 319 320 327 329 332 334 335 336 335 334 334 334 330 326 322 324 321 321 316 315 313 312 312 309 306 305 302 299 295 297
297 292 294 295 296 295 296 291 294 297 297 297 297 298 300 304 309 313 316 317 321 324 328 329 333 335 335 335 335 334 334 331 327 323 324 321 320 317 317 317 314 311 307 304 301 295 293 293 294
291 290 286 292 296 296 294 286 294 297 295 296 296 295 297 299 302 309 311 317 316 321 324 329 331 332 333 334 333 333 333 332 331 327 324 322 320 318 317 317 314 309 305 302 297 294 292 292 292
288 283 286 290 295 295 293 288 296 297 296 296 294 296 297 297 299 301 305 312 316 319 324 327 330 330 328 331 331 331 332 332 332 329 326 323 321 320 319 317 313 307 303 300 296 293 292 290 290
284 284 287 286 293 292 290 290 294 296 296 295 295 296 297 298 299 302 302 304 314 318 323 327 329 329 327 326 325 329 329 330 331 330 326 324 323 320 318 316 311 305 300 298 296 293 293 291 290
288 286 285 289 294 292 290 290 293 295 294 293 294 294 296 298 301 301 302 303 306 314 321 324 325 325 326 322 322 325 327 327 328 330 327 324 323 320 317 314 309 305 301 298 295 293 291 290 289
289 286 285 290 292 290 289 290 292 294 295 297 297 295 296 295 298 300 300 300 303 313 319 323 324 322 325 326 325 320 316 317 322 322 323 326 322 319 317 313 310 306 300 296 294 293 290 289 289
287 286 286 287 289 289 288 285 289 292 294 296 297 298 298 297 297 299 299 299 302 308 315 320 322 321 323 322 317 312 311 310 309 311 317 314 322 320 317 313 310 306 301 296 294 293 291 288 288
286 290 290 288 285 281 287 279 286 291 292 293 295 297 297 296 298 299 300 298 299 305 311 316 321 319 320 318 318 318 317 314 310 317 315 311 311 319 317 313 311 306 302 297 295 294 293 290 288
288 291 289 288 285 284 283 281 284 289 289 292 294 294 295 297 298 299 299 300 299 301 304 312 315 318 319 318 318 315 315 310 301 301 303 308 306 309 315 313 310 307 303 298 296 294 293 291 291
293 291 290 287 285 278 283 282 281 286 289 291 294 294 298 298 297 297 298 299 299 300 301 305 310 314 316 316 314 313 312 303 300 299 301 305 305 303 306 308 309 307 304 297 296 295 294 292 293
291 286 278 278 277 277 283 281 283 290 293 294 294 296 298 298 298 298 297 297 298 300 301 301 305 306 308 311 308 309 307 304 303 300 300 302 301 299 302 305 305 305 304 299 298 295 294 293 293
288 286 279 273 276 278 282 280 287 292 296 297 298 295 297 297 298 297 298 297 297 298 299 301 302 303 304 306 307 305 304 305 303 301 300 301 301 303 302 302 303 304 303 300 298 296 295 294 294
287 285 288 282 273 275 280 284 289 292 294 296 296 296 296 295 297 298 297 297 297 297 299 300 300 301 302 303 303 303 302 302 302 299 299 299 299 299 297 300 300 300 301 299 297 296 295 294 294
290 292 283 283 274 273 278 279 284 289 291 293 294 294 294 295 296 296 295 296 296 297 298 299 300 301 301 301 302 302 302 302 301 299 298 296 296 296 296 297 297 297 298 298 297 296 295 294 294
287 285 287 287 283 276 274 279 288 289 293 293 294 295 296 294 295 294 295 295 295 296 297 298 298 299 299 300 300 300 300 300 299 298 297 296 293 292 291 294 293 293 294 295 295 295 294 293 293
288 288 288 281 278 280 280 283 292 294 294 295 295 296 294 294 295 294 294 294 295 295 296 297 297 297 298 299 299 299 299 298 297 295 294 291 291 288 289 289 291 291 291 291 292 292 292 292 291
Wind_Speed
8 7 0 5 6 6 2 1 5 5 4 2 3 8 7 2 2 3 2 14 19 14 12 12 14 14 13 13 12 12 12 14 14 14 14 14 13 14 16 16 16 20 21 20 20 20 19 19 18
5 4 5 2 5 3 3 3 5 3 5 6 5 3 5 2 3 5 8 16 18 15 12 12 14 15 13 14 13 13 13 14 14 14 14 13 14 14 14 15 16 21 20 20 20 19 18 19 17
4 1 4 4 2 4 4 4 8 4 5 3 3 3 3 3 2 7 6 18 16 14 12 11 15 16 14 14 14 13 13 14 14 14 14 14 15 13 12 12 17 20 21 20 18 18 18 19 19
3 5 5 4 1 5 7 8 8 5 4 4 4 5 4 2 10 8 9 19 15 14 12 12 15 16 15 15 15 13 13 14 14 14 14 14 14 14 17 19 20 21 20 18 17 18 18 19 18
4 3 3 2 1 3 6 8 7 5 6 3 3 5 4 3 9 10 10 15 14 13 12 12 14 16 16 15 15 14 13 14 14 15 15 15 15 15 18 19 19 19 18 17 17 17 18 19 18
4 3 2 2 1 3 3 8 9 7 4 5 3 7 5 5 8 8 8 10 14 14 12 12 12 13 14 15 15 15 14 14 14 14 14 15 15 15 16 17 17 19 17 17 18 18 20 21 23
4 4 4 2 3 2 6 6 6 6 8 5 7 4 3 3 7 8 8 10 14 15 13 8 9 11 12 12 13 14 14 14 14 13 13 12 13 13 14 16 17 17 18 18 19 19 18 23 24
4 4 3 2 3 2 3 3 2 3 3 2 3 5 5 7 8 8 7 10 10 13 14 11 8 8 8 9 12 13 13 13 13 13 13 12 12 12 13 14 16 17 18 19 19 19 22 22 22
3 5 2 3 2 3 3 4 3 3 6 2 2 6 4 12 10 6 5 4 11 7 14 12 11 9 8 7 9 11 13 13 14 13 13 10 5 6 8 10 15 17 18 18 20 21 21 21 21
5 4 4 2 2 2 3 4 5 3 4 1 4 3 7 10 9 9 8 7 7 9 11 13 12 11 9 8 9 7 7 7 7 7 9 7 7 6 7 9 12 15 15 17 19 16 15 12 7
3 5 2 3 2 4 2 2 5 6 3 6 10 10 10 7 9 9 8 10 10 8 8 13 13 12 13 9 8 5 5 4 6 8 6 6 7 7 5 4 4 4 6 4 7 7 5 8 6
1 4 2 1 3 3 2 5 4 6 8 5 6 12 11 10 12 11 11 10 10 9 10 12 15 12 12 9 9 9 7 6 6 7 6 7 4 7 7 5 5 4 4 6 5 5 7 9 8
4 3 2 4 4 1 2 2 4 8 8 7 5 12 13 12 11 8 9 8 9 12 11 13 15 14 11 11 9 9 9 8 7 6 6 8 7 7 8 6 6 4 4 6 6 6 7 8 9
4 1 3 4 4 2 2 3 2 10 9 9 8 10 11 11 14 7 8 11 11 14 15 13 14 15 13 11 12 10 9 9 8 8 7 7 7 7 6 8 5 5 6 5 6 6 6 6 8
4 2 5 5 5 2 3 5 10 12 6 5 7 9 10 14 11 14 16 14 14 11 15 16 16 14 14 14 12 10 10 9 9 9 9 8 7 8 8 7 6 6 6 9 8 8 7 7 7
3 2 1 4 9 3 5 8 7 5 7 10 9 8 9 11 12 14 13 14 10 10 14 15 14 14 15 14 11 9 10 10 9 9 9 10 9 9 7 8 8 9 8 8 8 8 8 7 7
3 3 5 3 4 5 4 5 5 4 4 7 6 9 9 9 11 13 13 15 14 14 15 14 15 15 13 12 10 10 12 10 9 9 9 12 11 11 9 8 8 11 9 9 9 7 9 8 7
6 3 3 4 5 3 3 9 11 10 8 10 11 10 10 10 15 15 14 12 14 13 13 15 13 15 13 9 7 7 9 9 9 9 10 14 11 12 10 6 10 10 9 9 7 10 7 9 9
3 1 2 5 5 5 8 10 11 10 8 12 12 11 12 14 10 10 12 13 10 10 11 15 14 13 12 7 8 7 11 9 9 9 13 14 13 14 12 8 11 11 11 12 11 11 11 9 11
3 0 4 5 2 3 6 13 11 9 11 16 15 13 15 7 8 11 10 11 13 15 16 14 15 14 14 11 9 4 4 3 7 6 8 13 15 16 14 14 13 10 9 12 13 14 10 5 10
2 4 3 6 2 4 5 8 9 5 6 8 12 15 12 12 11 10 10 11 12 14 16 15 16 16 15 11 5 4 5 3 2 4 7 6 12 17 16 16 13 13 11 12 15 15 16 11 10
3 3 4 5 2 4 2 9 7 8 11 8 12 13 11 9 9 10 11 8 11 15 9 10 14 15 14 11 11 15 11 9 5 8 6 6 6 12 16 17 16 16 12 15 16 14 13 9 15
6 3 4 3 3 4 3 3 10 6 7 12 13 10 10 10 10 10 10 9 8 9 10 8 10 12 13 15 14 12 12 5 3 4 7 7 5 6 13 16 16 15 12 14 17 15 12 11 11
9 6 8 6 3 5 9 8 4 6 7 5 5 2 3 4 6 6 5 5 4 4 5 7 9 11 12 14 13 16 15 9 6 5 8 7 5 4 7 10 14 15 14 15 15 16 17 14 11
5 7 1 3 2 9 5 4 8 7 8 4 3 5 7 6 6 7 7 6 5 7 8 8 10 9 8 12 11 12 12 12 12 10 8 9 7 5 9 11 11 11 14 13 13 14 15 15 13
9 9 8 9 5 6 4 9 6 7 7 5 6 2 6 8 6 4 6 7 6 6 5 5 7 7 8 9 10 7 8 8 6 8 6 8 9 9 9 10 10 11 12 13 14 11 12 12 12
6 8 6 3 2 3 6 9 9 9 9 10 11 9 8 5 6 7 5 5 6 6 7 7 6 4 6 7 7 7 7 7 7 8 7 6 7 6 9 11 10 10 11 13 13 11 15 14 14
7 7 2 1 3 5 6 6 9 9 10 10 11 9 5 3 4 3 3 3 2 3 4 5 5 7 5 6 6 6 7 7 7 8 10 9 8 7 10 11 10 10 11 12 13 11 12 13 12
3 4 4 5 6 6 3 8 7 5 3 5 8 7 7 4 2 2 1 1 1 1 2 3 4 5 5 5 5 7 7 7 7 8 9 10 8 9 10 11 11 10 10 9 10 9 9 13 12
3 8 6 6 4 5 4 13 2 7 5 7 7 6 4 2 1 2 3 2 2 3 2 4 4 5 6 6 6 7 6 6 7 7 7 8 8 7 9 8 10 10 9 9 11 11 11 14 14
Wind_Direction
318 299 20 36 50 65 206 80 135 101 51 72 60 88 121 69 66 181 163 127 133 141 141 139 139 136 134 126 116 110 106 102 99 95 92 93 91 84 87 89 95 93 88 83 80 79 79 70 61
314 333 42 71 87 70 301 155 93 106 142 90 60 54 74 105 100 132 102 135 135 138 140 141 138 140 136 128 120 115 112 108 101 99 99 97 95 89 89 93 101 97 91 86 82 80 76 65 59
305 149 81 99 104 129 163 132 139 122 119 116 87 73 84 116 79 141 131 134 132 138 138 142 141 141 136 128 123 119 115 111 109 108 104 102 95 91 81 106 104 99 93 90 84 83 79 65 67
4 9 19 80 161 312 112 146 136 107 25 48 111 78 55 3 148 157 134 134 135 142 140 144 145 144 138 132 127 125 122 117 113 109 106 104 100 90 100 101 101 95 95 90 87 86 77 70 70
29 58 39 318 268 181 107 152 126 140 161 161 109 169 114 11 121 136 133 136 135 136 142 145 145 144 140 137 133 132 127 123 120 117 115 112 108 97 103 99 95 94 95 93 92 89 79 68 77
19 91 51 284 233 160 99 137 133 151 157 170 119 114 188 163 124 162 135 128 132 137 142 147 142 143 143 142 139 135 130 126 122 120 118 115 111 105 102 102 99 102 105 101 99 93 79 71 77
112 87 212 244 287 188 166 137 141 155 148 191 154 92 151 162 177 158 149 126 141 139 137 139 146 150 147 144 140 137 135 132 129 126 120 112 110 108 101 101 110 113 109 107 103 94 84 85 80
100 94 301 261 264 98 160 96 161 108 188 110 117 153 184 210 186 153 145 133 134 147 138 146 145 150 151 150 142 139 137 136 128 117 110 104 99 97 109 119 123 119 116 111 106 94 94 88 82
64 62 283 270 298 137 155 113 357 163 111 65 81 129 198 156 150 141 150 118 143 152 142 155 153 155 151 146 150 142 142 135 130 127 125 116 112 102 100 120 126 124 120 116 107 96 94 86 80
96 114 228 327 22 84 131 117 178 109 121 105 70 15 105 136 153 161 177 167 158 158 157 156 162 160 156 159 156 148 144 146 148 148 146 134 122 118 112 114 119 119 120 119 108 82 75 74 71
189 178 207 2 58 55 62 57 161 137 220 202 193 173 161 156 170 178 190 179 177 167 159 161 165 169 164 165 162 157 153 153 158 162 150 133 130 123 113 111 109 119 101 83 73 78 71 78 86
142 273 120 52 34 37 60 303 322 184 213 145 178 181 164 171 183 191 196 182 179 170 172 173 170 170 173 165 171 162 167 165 170 175 144 139 142 138 137 137 141 131 109 103 97 90 87 80 79
142 302 69 125 105 160 0 276 245 270 251 274 153 150 183 183 194 204 199 186 183 185 181 181 173 174 172 164 167 169 172 174 174 165 154 154 152 153 147 151 155 135 118 116 104 94 92 86 88
146 50 277 180 183 184 174 261 92 263 247 255 188 184 182 188 197 200 199 206 188 192 191 182 185 181 171 175 170 172 173 175 172 174 168 162 153 157 168 159 159 131 128 112 108 107 100 84 89
86 345 312 237 199 169 162 304 219 245 269 271 212 207 199 202 195 206 207 206 201 197 187 185 184 180 176 175 172 171 176 175 173 175 167 160 154 153 156 158 147 134 128 115 107 97 95 90 90
135 85 16 288 149 212 123 267 271 310 201 249 256 242 216 221 206 210 207 205 200 190 191 187 186 178 175 175 173 173 174 180 177 169 170 167 161 153 158 158 146 142 135 128 128 130 119 115 110
327 211 199 292 153 127 160 251 264 332 13 282 255 246 241 233 236 224 208 202 201 195 190 188 183 180 167 169 170 163 175 178 176 168 173 172 171 172 168 161 144 146 141 140 141 138 135 125 115
207 210 259 218 237 121 193 253 272 285 299 261 262 252 241 233 232 223 216 204 201 195 184 185 184 181 174 163 161 161 169 180 171 172 175 177 177 173 164 158 150 148 142 142 148 140 133 128 126
175 176 218 262 209 151 223 253 262 267 280 273 259 247 245 238 236 220 218 209 194 186 174 184 176 182 174 171 167 175 189 182 180 182 175 177 178 174 169 164 159 159 159 166 154 138 140 140 134
170 245 257 299 165 144 263 265 252 243 246 251 258 254 249 240 227 243 223 199 192 189 189 182 185 178 187 190 185 159 150 175 179 169 173 182 180 179 175 166 170 169 153 156 158 158 145 157 170
204 169 235 221 331 291 302 288 273 279 244 267 257 247 256 229 228 237 236 208 192 190 189 183 180 179 184 177 132 93 90 76 122 189 188 191 187 181 177 175 172 165 164 172 171 167 170 169 193
220 182 216 250 31 242 121 286 289 272 271 276 265 255 254 245 239 230 233 195 197 204 185 176 173 177 180 163 176 190 196 192 205 196 191 190 199 192 179 176 175 172 174 176 181 181 179 171 182
200 157 156 175 176 349 276 252 266 264 286 251 258 258 258 260 236 234 238 212 190 167 177 165 155 170 179 180 183 185 199 194 140 143 167 196 198 198 191 181 177 177 180 180 179 181 185 178 188
147 80 37 34 62 273 200 204 257 203 213 279 276 246 127 109 74 80 63 130 154 119 141 160 167 181 181 184 186 190 195 167 157 167 182 196 197 192 190 189 182 181 185 178 184 184 189 188 186
113 104 348 335 350 238 303 247 228 281 219 213 285 235 204 183 158 159 137 117 127 169 187 191 185 184 175 182 179 186 188 184 186 180 182 181 192 196 198 185 189 187 183 184 186 184 196 189 188
192 159 163 193 201 261 323 245 246 232 261 251 270 318 208 205 198 171 168 181 183 179 176 170 183 196 183 178 187 176 170 188 189 177 178 191 200 208 194 194 195 191 184 180 187 189 197 195 198
204 213 173 56 83 28 233 290 288 274 257 275 273 263 231 244 220 217 195 195 185 182 194 192 186 198 194 190 176 176 167 178 184 176 179 183 186 186 186 194 189 192 188 183 187 190 199 195 197
151 166 96 6 160 247 256 263 238 298 276 295 283 282 316 207 132 119 159 180 198 197 201 186 203 206 200 192 190 184 183 190 181 176 185 181 184 175 181 193 196 195 193 189 189 196 200 196 202
143 181 195 138 155 175 273 259 227 223 3 18 25 36 29 124 213 247 274 14 219 200 204 222 214 223 219 209 200 192 196 199 191 186 185 186 173 173 181 189 188 191 193 194 194 195 195 199 204
185 192 163 142 240 227 168 252 104 119 98 71 31 37 45 77 171 169 148 104 359 306 286 235 245 243 240 220 202 210 203 202 201 198 187 169 180 176 177 176 185 187 189 187 193 193 193 198 198